Location: Peebles
(55.6412°N, 3.1714°W)
Time: 15:01:01
(UTC+01:00)

Resurs 01 Rocket - Pass Details

Date: 26 September 2021
Orbit: 634 x 644 km, 97.9° (Epoch: 17 October)

Event Time Altitude Azimuth Distance (km) Brightness Sun altitude
Exits shadow 22:58:21 18° 259° (W) 1,559 3.8 -30.3°
Maximum altitude 22:59:02 19° 271° (W) 1,533 3.9 -30.4°
Drops below altitude 10° 23:02:10 10° 317° (NW) 2,033 5.1 -30.6°
Sets 23:04:59 0° 335° (NNW) 2,947 6.2 -30.9°
